Date String (YYYY-MM-DD hh:mm:ss) UTC,Instrument flags,Ambient pressure (hPa),Sample flow (lpm),Bypass flow (lpm),Sample temperature (°C),Ambient temperature (°C),ASC tube jacket temperature (°C),LED temperature (°C),Box temperature (°C),Sample RH (%),Span deviation,Mass concentration (μg/m³),Mass concentration (μg/m³),Mass concentration (μg/m³)
DateTimeUTC,F1_M11,P_M11,Q1_M11,Q2_M11,T1_M11,T2_M11,T3_M11,T4_M11,T5_M11,U1_M11,ZSPAN_M11,X0_M11,X2_M11,X1_M11
2022-03-18 12:00:00,,0826.0,5.00,0.00,22.1,21.5,00.0,31.2,23.8,10.7,0000.0,0003.95,0001.43,0001.11
2022-03-18 12:01:00,,0826.1,5.01,0.00,22.2,22.2,00.0,31.3,24.0,10.7,0000.0,0004.78,0001.42,0001.11
2022-03-18 12:02:00,,0826.1,5.00,0.00,22.3,22.9,00.0,31.3,24.3,10.7,0000.0,0004.78,0001.43,0001.11
2022-03-18 12:03:00,,0826.1,4.99,0.00,22.4,22.9,00.0,31.3,24.3,10.6,0000.0,0004.85,0001.45,0001.11
2022-03-18 12:04:00,,0826.1,5.00,0.00,22.4,22.6,00.0,31.3,24.3,10.6,0000.0,0004.86,0001.45,0001.10
2022-03-18 12:05:00,,0826.1,5.00,0.00,22.4,22.4,00.0,31.3,24.2,10.5,0000.0,0005.02,0001.43,0001.09
2022-03-18 12:06:00,,0826.1,5.00,0.00,22.4,22.2,00.0,31.3,24.2,10.6,0000.0,0005.01,0001.41,0001.09
2022-03-18 12:07:00,,0826.2,5.00,0.00,22.4,22.0,00.0,31.3,24.1,10.6,0000.0,0004.75,0001.37,0001.07
2022-03-18 12:08:00,,0826.1,5.01,0.00,22.3,21.8,00.0,31.3,24.0,10.6,0000.0,0004.19,0001.32,0001.04
2022-03-18 12:09:00,,0826.2,5.01,0.00,22.3,21.7,00.0,31.3,24.0,10.5,0000.0,0004.11,0001.32,0001.04
2022-03-18 12:10:00,,0826.2,5.00,0.00,22.3,21.6,00.0,31.3,23.9,10.5,0000.0,0004.08,0001.32,0001.03
2022-03-18 12:11:00,,0826.2,4.99,0.00,22.2,21.5,00.0,31.3,23.9,10.5,0000.0,0003.82,0001.31,0001.02
2022-03-18 12:12:00,,0826.2,5.01,0.00,22.2,21.4,00.0,31.3,23.8,10.5,0000.0,0002.36,0001.29,0001.01
2022-03-18 12:13:00,,0826.1,5.00,0.00,22.1,21.4,00.0,31.2,23.8,10.5,0000.0,0002.30,0001.26,0000.99
2022-03-18 12:14:00,,0826.1,4.99,0.00,22.1,21.3,00.0,31.2,23.8,10.5,0000.0,0002.31,0001.26,0000.97
2022-03-18 12:15:00,,0826.1,5.01,0.00,22.1,21.2,00.0,31.2,23.7,10.5,0000.0,0002.15,0001.20,0000.95
2022-03-18 12:16:00,,0826.1,5.00,0.00,22.0,21.3,00.0,31.2,23.7,10.5,0000.0,0002.00,0001.19,0000.94
2022-03-18 12:17:00,,0826.1,4.99,0.00,22.1,21.8,00.0,31.2,23.9,10.5,0000.0,0001.94,0001.19,0000.93
2022-03-18 12:18:00,,0826.1,5.02,0.00,22.2,22.6,00.0,31.2,24.1,10.5,0000.0,0003.11,0001.20,0000.91
2022-03-18 12:19:00,,0826.0,5.00,0.00,22.4,23.2,00.0,31.3,24.4,10.4,0000.0,0003.26,0001.20,0000.90
2022-03-18 12:20:00,,0826.0,5.00,0.00,22.5,23.2,00.0,31.3,24.5,10.3,0000.0,0003.26,0001.20,0000.90
2022-03-18 12:21:00,,0826.0,4.99,0.00,22.5,22.9,00.0,31.3,24.4,10.2,0000.0,0003.18,0001.16,0000.90
2022-03-18 12:22:00,,0826.1,5.01,0.00,22.5,22.6,00.0,31.3,24.3,10.1,0000.0,0003.17,0001.16,0000.90
2022-03-18 12:23:00,,0826.1,4.99,0.00,22.5,22.4,00.0,31.3,24.2,10.2,0000.0,0003.21,0001.17,0000.89
2022-03-18 12:24:00,,0826.1,5.01,0.00,22.4,22.2,00.0,31.3,24.1,10.3,0000.0,0003.26,0001.19,0000.90
2022-03-18 12:25:00,,0826.0,5.00,0.00,22.4,22.0,00.0,31.3,24.1,10.3,0000.0,0003.35,0001.20,0000.91
2022-03-18 12:26:00,,0826.1,5.01,0.00,22.3,21.8,00.0,31.3,24.0,10.3,0000.0,0003.39,0001.20,0000.91
2022-03-18 12:27:00,,0826.0,4.99,0.00,22.3,21.7,00.0,31.3,24.0,10.3,0000.0,0003.51,0001.21,0000.92
2022-03-18 12:28:00,,0826.1,5.00,0.00,22.3,21.6,00.0,31.3,23.9,10.2,0000.0,0003.55,0001.22,0000.92
2022-03-18 12:29:00,,0826.1,5.00,0.00,22.2,21.5,00.0,31.3,23.9,10.2,0000.0,0002.28,0001.24,0000.93
2022-03-18 12:30:00,,0826.2,5.00,0.00,22.2,21.4,00.0,31.3,23.8,10.3,0000.0,0002.20,0001.24,0000.93
2022-03-18 12:31:00,,0826.1,5.02,0.00,22.1,21.4,00.0,31.3,23.8,10.3,0000.0,0002.12,0001.22,0000.93
2022-03-18 12:32:00,,0826.1,5.00,0.00,22.1,21.3,00.0,31.2,23.8,10.3,0000.0,0002.20,0001.24,0000.92
2022-03-18 12:33:00,,0826.1,5.00,0.00,22.1,21.3,00.0,31.2,23.7,10.3,0000.0,0002.29,0001.26,0000.91
2022-03-18 12:34:00,,0826.1,4.99,0.00,22.0,21.2,00.0,31.2,23.7,10.2,0000.0,0002.23,0001.23,0000.90
2022-03-18 12:35:00,,0826.0,4.99,0.00,22.1,21.4,00.0,31.2,23.7,10.2,0000.0,0002.20,0001.21,0000.89
2022-03-18 12:36:00,,0826.1,5.01,0.00,22.1,22.1,00.0,31.2,24.0,10.3,0000.0,0002.11,0001.21,0000.89
2022-03-18 12:37:00,,0826.2,5.00,0.00,22.3,22.8,00.0,31.3,24.2,10.3,0000.0,0002.19,0001.27,0000.91
2022-03-18 12:38:00,,0826.2,4.99,0.00,22.4,22.9,00.0,31.3,24.3,10.3,0000.0,0002.14,0001.29,0000.91
2022-03-18 12:39:00,,0826.1,5.01,0.00,22.4,22.7,00.0,31.3,24.3,10.3,0000.0,0002.07,0001.27,0000.91
2022-03-18 12:40:00,,0826.1,5.00,0.00,22.4,22.5,00.0,31.3,24.2,10.2,0000.0,0001.92,0001.22,0000.91
2022-03-18 12:41:00,,0826.0,5.00,0.00,22.4,22.2,00.0,31.3,24.2,10.2,0000.0,0001.84,0001.19,0000.90
2022-03-18 12:42:00,,0826.0,5.00,0.00,22.4,22.1,00.0,31.3,24.1,10.2,0000.0,0001.90,0001.20,0000.90
2022-03-18 12:43:00,,0826.0,5.01,0.00,22.3,21.9,00.0,31.3,24.0,10.2,0000.0,0001.98,0001.22,0000.90
2022-03-18 12:44:00,,0826.0,5.00,0.00,22.3,21.8,00.0,31.3,24.0,10.2,0000.0,0001.96,0001.21,0000.90
2022-03-18 12:45:00,,0826.0,5.00,0.00,22.2,21.6,00.0,31.3,23.9,10.2,0000.0,0002.02,0001.23,0000.91
2022-03-18 12:46:00,,0826.0,5.00,0.00,22.2,21.6,00.0,31.3,23.9,10.2,0000.0,0002.14,0001.27,0000.92
2022-03-18 12:47:00,,0826.0,5.00,0.00,22.2,21.5,00.0,31.3,23.8,10.2,0000.0,0002.14,0001.28,0000.94
2022-03-18 12:48:00,,0826.0,5.00,0.00,22.1,21.4,00.0,31.2,23.8,10.2,0000.0,0002.10,0001.26,0000.94
2022-03-18 12:49:00,,0826.0,5.00,0.00,22.1,21.3,00.0,31.2,23.8,10.2,0000.0,0002.00,0001.23,0000.94
2022-03-18 12:50:00,,0826.0,5.01,0.00,22.1,21.3,00.0,31.2,23.7,10.2,0000.0,0001.96,0001.22,0000.95
2022-03-18 12:51:00,,0826.0,5.00,0.00,22.0,21.2,00.0,31.2,23.7,10.2,0000.0,0002.05,0001.26,0000.96
2022-03-18 12:52:00,,0826.0,5.00,0.00,22.0,21.3,00.0,31.2,23.7,10.2,0000.0,0002.15,0001.30,0000.98
2022-03-18 12:53:00,,0826.0,5.01,0.00,22.1,22.0,00.0,31.2,23.9,10.2,0000.0,0002.31,0001.34,0000.98
2022-03-18 12:54:00,,0826.0,5.00,0.00,22.3,22.7,00.0,31.2,24.2,10.1,0000.0,0002.25,0001.36,0000.99
2022-03-18 12:55:00,,0826.0,4.99,0.00,22.4,22.9,00.0,31.3,24.3,10.0,0000.0,0002.14,0001.33,0001.00
2022-03-18 12:56:00,,0825.9,5.00,0.00,22.4,22.7,00.0,31.3,24.3,10.0,0000.0,0002.14,0001.34,0001.00
2022-03-18 12:57:00,,0825.8,5.00,0.00,22.4,22.4,00.0,31.3,24.2,10.0,0000.0,0002.05,0001.31,0001.00
2022-03-18 12:58:00,,0825.9,5.00,0.00,22.4,22.2,00.0,31.3,24.2,10.0,0000.0,0002.07,0001.31,0001.00
2022-03-18 12:59:00,,0825.9,5.00,0.00,22.3,22.0,00.0,31.3,24.1,10.0,0000.0,0002.04,0001.30,0000.99
